GW5385 Weather Reports


Display with metric or nautical units.
time (UTC)temp
F
wind
direction
speed
MPH
gust
MPH
rain 1hr
in
rain 24hr
in
rain mn
in
humidity
%
barometer
mb
20260906220049 63 61 0.0 5.0 0.00 0.10 0.07 73 1018.5
20260906214548 63 77 3.0 7.0 0.00 0.10 0.07 74 1018.4
20260906213054 63 58 4.0 8.0 0.00 0.10 0.07 73 1018.4
20260906211544 64 81 5.0 8.0 0.00 0.10 0.07 73 1018.3
20260906210050 64 65 5.0 11.0 0.00 0.10 0.07 72 1018.3
20260906204600 63 58 6.0 10.0 0.00 0.10 0.07 73 1018.4
20260906203041 63 46 7.0 12.0 0.00 0.10 0.07 72 1018.4
20260906201551 63 49 6.0 12.0 0.00 0.10 0.07 74 1018.5
20260906200038 63 31 8.0 12.0 0.00 0.10 0.07 72 1018.5
20260906194538 63 68 5.0 12.0 0.00 0.10 0.07 72 1018.6
20260906193035 63 65 6.0 12.0 0.00 0.10 0.07 70 1018.6
20260906191534 64 42 7.0 16.0 0.00 0.10 0.07 68 1018.5
20260906190032 65 37 10.0 15.0 0.00 0.10 0.07 70 1018.4
20260906184529 63 60 12.0 18.0 0.00 0.10 0.07 71 1018.5
20260906183022 62 55 11.0 17.0 0.00 0.10 0.07 77 1018.7
20260906181518 60 34 11.0 15.0 0.03 0.10 0.07 85 1018.8
20260906180018 58 40 4.0 8.0 0.03 0.10 0.07 88 1019.5
20260906174517 57 25 5.0 8.0 0.03 0.10 0.07 87 1019.8
20260906173010 56 17 4.0 8.0 0.03 0.10 0.07 85 1020.3
20260906171510 57 238 1.0 9.0 0.00 0.07 0.04 86 1020.7
20260906170008 58 335 0.0 4.0 0.00 0.07 0.04 83 1020.6
20260906164508 58 58 2.0 4.0 0.00 0.07 0.04 84 1020.6
20260906163007 58 109 0.0 2.0 0.02 0.07 0.04 87 1020.5
20260906161513 57 62 0.0 2.0 0.04 0.07 0.04 87 1020.4
20260906160004 56 40 0.0 4.0 0.04 0.07 0.04 88 1020.5
20260906154502 55 13 3.0 8.0 0.04 0.07 0.04 87 1020.9
20260906153005 55 349 5.0 10.0 0.01 0.04 0.01 86 1021.0
20260906151601 54 311 4.0 10.0 0.00 0.03 0.00 85 1021.1
20260906150058 54 305 4.0 11.0 0.00 0.04 0.00 86 1021.1
20260906144555 54 314 4.0 15.0 0.00 0.04 0.00 84 1021.5
20260906143053 58 281 2.0 6.0 0.00 0.04 0.00 80 1021.8
20260906141550 59 62 4.0 8.0 0.00 0.04 0.00 81 1021.0
20260906140049 59 65 6.0 13.0 0.00 0.09 0.00 81 1021.0
20260906134548 59 53 5.0 10.0 0.00 0.09 0.00 81 1020.9
20260906133049 59 44 4.0 9.0 0.00 0.09 0.00 82 1020.8
20260906131545 58 63 3.0 11.0 0.00 0.09 0.00 83 1020.6
20260906130042 58 58 6.0 11.0 0.00 0.09 0.00 82 1020.9
20260906124541 57 11 1.0 9.0 0.00 0.09 0.00 83 1021.2
20260906123039 57 26 7.0 14.0 0.00 0.09 0.00 83 1020.7
20260906121508 57 30 10.0 0.0 0.00 0.00 0.00 83 1020.7
20260906120005 57 32 9.0 13.0 0.00 0.09 0.00 84 1020.9
20260906114502 56 22 7.0 12.0 0.00 0.09 0.00 84 1021.3
20260906113000 56 49 6.0 10.0 0.00 0.09 0.00 84 1021.2
20260906111616 56 44 5.0 12.0 0.00 0.09 0.00 83 1021.1
20260906110100 55 24 6.0 11.0 0.00 0.09 0.00 82 1021.1
20260906104555 56 21 8.0 13.0 0.00 0.09 0.00 80 1021.2
20260906103054 56 32 8.0 12.0 0.00 0.09 0.00 80 1021.2
20260906101551 57 19 7.0 17.0 0.00 0.09 0.00 80 1021.3
20260906100050 57 19 7.0 12.0 0.00 0.09 0.00 79 1021.4
20260906094534 57 25 7.0 14.0 0.00 0.09 0.00 80 1021.3
20260906093032 58 351 8.0 18.0 0.00 0.09 0.00 79 1021.4
20260906091545 58 15 9.0 16.0 0.00 0.09 0.00 79 1021.7
20260906090053 58 333 10.0 19.0 0.00 0.09 0.00 79 1022.0
20260906084549 56 338 2.0 6.0 0.00 0.09 0.00 82 1022.7
20260906083042 57 300 1.0 11.0 0.00 0.09 0.00 81 1022.6
20260906081539 57 41 9.0 14.0 0.00 0.09 0.00 80 1021.9
20260906080040 58 30 9.0 16.0 0.00 0.09 0.00 79 1021.6
20260906074535 58 356 8.0 14.0 0.00 0.09 0.00 79 1021.8
20260906073040 58 20 10.0 16.0 0.00 0.09 0.00 78 1021.8
20260906071537 58 6 12.0 16.0 0.00 0.09 0.00 78 1021.9
20260906070032 58 16 9.0 14.0 0.00 0.09 0.00 79 1022.1
20260906064526 58 352 4.0 10.0 0.00 0.09 0.00 78 1022.8
20260906063025 58 32 10.0 15.0 0.00 0.09 0.00 78 1022.7
20260906061522 57 26 11.0 17.0 0.00 0.09 0.00 79 1022.6
20260906060022 56 8 7.0 11.0 0.00 0.09 0.09 79 1022.8
20260906054517 56 5 7.0 11.0 0.01 0.09 0.09 78 1022.7
20260906053016 56 335 6.0 11.0 0.01 0.09 0.09 79 1022.5
20260906051515 56 1 9.0 16.0 0.01 0.09 0.09 79 1022.5
20260906050015 56 4 13.0 22.0 0.01 0.09 0.09 79 1022.2
20260906044514 57 12 8.0 16.0 0.00 0.08 0.08 78 1023.3
20260906043011 57 18 14.0 19.0 0.01 0.08 0.08 79 1021.9
20260906041510 57 7 12.0 18.0 0.02 0.08 0.08 80 1021.7
20260906040012 57 20 12.0 18.0 0.02 0.08 0.08 79 1021.7
20260906034511 58 24 5.0 9.0 0.02 0.08 0.08 78 1022.4
20260906033014 60 344 5.0 8.0 0.00 0.06 0.06 68 1022.5
20260906031502 60 18 4.0 18.0 0.00 0.06 0.06 67 1022.6
20260906030002 60 300 14.0 21.0 0.00 0.06 0.06 67 1021.3
20260906024502 59 19 12.0 19.0 0.00 0.06 0.06 67 1020.7
20260906023102 60 18 13.0 18.0 0.00 0.06 0.06 66 1020.6
20260906021559 61 27 10.0 14.0 0.00 0.06 0.06 64 1020.7
20260906020055 62 34 8.0 13.0 0.00 0.06 0.06 61 1020.6
20260906014607 63 41 5.0 9.0 0.00 0.06 0.06 59 1020.6
20260906013055 64 24 6.0 12.0 0.00 0.06 0.06 58 1020.6
20260906011552 65 30 6.0 13.0 0.00 0.06 0.06 56 1020.6
20260906010049 66 359 10.0 14.0 0.00 0.06 0.06 55 1020.5
20260906004549 66 26 7.0 14.0 0.00 0.06 0.06 54 1020.6
20260906003105 67 33 8.0 13.0 0.00 0.06 0.06 54 1020.7
20260906001549 68 15 9.0 14.0 0.00 0.06 0.06 53 1020.7
20260906000045 69 37 11.0 14.0 0.00 0.06 0.06 53 1020.8
20260905234544 68 41 8.0 13.0 0.00 0.06 0.06 53 1021.1
20260905233043 69 67 7.0 12.0 0.00 0.06 0.06 50 1020.9
20260905231543 70 51 7.0 11.0 0.00 0.06 0.06 49 1020.9
20260905230039 72 65 4.0 8.0 0.00 0.06 0.06 46 1020.7
20260905224539 71 6 7.0 12.0 0.00 0.06 0.06 47 1020.8
20260905223038 72 63 3.0 14.0 0.00 0.06 0.06 47 1020.9
20260905221537 72 37 3.0 12.0 0.00 0.06 0.06 45 1020.9